Showing default

O3B MPOWER F09, 64866

Orbit data source: Space-Track

O3B MPOWER F09, 64866 is a payload satellite owned by O3B SES (LU) in LEO that was launched on Tue, 22 Jul 2025 UTC via an FALCON 9 launch vehicle from the Air Force Eastern Test Range (AFETR). Payload-class satellites include a variety of spacecraft equipped with specific instruments for various scientific and technological missions. These include communications satellites like Starlink; space stations such as the ISS; scientific satellites like the Hubble; Earth observation satellites from companies like Planet Labs, Umbra, and HawkEye 360; GPS; miniature CubeSats for education and research; and military/defense satellites.

Loading next visibility...
Identifier
64866, 2025-153A
Orbit
LEO
Country
Flag of LULU / SES
Related business
None
Manufacturer
Boeing/ES
Mission
Operational spacecraft
Bus & Motor
702X, PPS5000
Mass
1,700 kg wet, 1,700 kg dry
Launch date (UTC)
2025-07-22 (1 month ago)
Launch vehicle
FALCON 9
Launch site
Air Force Eastern Test Range (AFETR)
Object type
Payload
Rocket body
Debris
Shape & HBR
Unknown
Radar Cross Section
Large (>1 m²)

Expand to show TLE details & history
Last TLE update: 3 weeks ago

TLE from 3 weeks ago
0 O3B MPOWER F09
1 64866U 25153A   25219.95121948  .00000049  00000-0  18964-2 0  9997
2 64866   8.4827  67.1075 1856592 225.8328 117.3492  7.14431076  1183
Epoch: 2025-08-07T22:49Z
TLE epoch observation values (Epoch: 2025-08-07T22:49:45.363Z)
Latitude
0.00001°
Longitude
127.96027°
Altitude
6,248.656 km
Speed
5.305 km/s
True Right ascension
04h 28m 25s
True Declination
0° 00' 00"
Sunlit
Object was in daylight at epoch
Visualization orbit readout
Latitude
Unknown
Longitude
Unknown
Altitude
Unknown
Speed
Unknown
Apparent Right ascension
Unknown
Apparent Declination
Unknown
Sunlit
N/A
Visualization observer readout
Local Sidereal Time
18:35:40
Azimuth
Unknown
Elevation
Unknown
Doppler factor
Unknown
Orbital elements
Apogee altitude
7,128.239 km
Perigee altitude
2,898.384 km
Semi-major axis
11,391.449 km
Eccentricity
0.18566
Inclination
8.4827°
RAAN
67.1075°
Arg. of periapsis
225.8328°
True anomaly
134.1785°
Mean anomaly
117.3492°
Eccentric anomaly
125.95952°
Mean motion
1.78515 °/min
Orbital period
201.66 mins
BSTAR
0.0018964
Loading maneuver chart data...
Computing Atmospheric mass density...
Loading historical data...
Loading historical data...
Loading historical data...
Loading historical data...
Loading historical data...
Loading historical data...
Loading historical data...
Other satellites on launch #153 in the year 2025 (2025-07-22 UTC)

Documentation

Showing up to 5 results
|